Tracking 17560 objects as of 11-February-2016
HD Live streaming from Space Station
objects crossing your sky now

CHINASAT 5B (SINOSAT 1)

Track CHINASAT 5B (SINOSAT 1) now!
CHINASAT 5B (SINOSAT 1) is classified as:


NORAD ID: 25404
Int'l Code: 1998-044A
Perigee: 36,059.9 km
Apogee: 36,144.5 km
Inclination: 3.5 °
Period: 1,451.9 minutes
Semi major axis: 42473 km
RCS: 25.1188 m2 (large)
Launch date: July 18, 1998
Source: People's Republic of China (PRC)
Launch site: Xichang Space Center, China (XSC)

11 C-band, broadcasting, business services, direct-to-home TV broadcasting, telecommunications, VSAT networks; Asia Pacific region.
Your satellite tracking list
Your tracking list is empty





NASA's NSSDC Master Catalog

Two Line Element Set (TLE):
1 25404U 98044A   16040.82766530 -.00000151 +00000-0 +00000-0 0  9996
2 25404 003.4712 068.5519 0009964 152.1483 221.0362 00.9918154464412
Source of the keplerian elements: AFSPC

N2YO: 395